Weather Roundup
Issued by NWS

Home | Current Version | Previous Version | Graphics & Text | Print | Product List | Glossary Off
Versions: 1 2 3 4 5 6 7 8 9 10 11 12 13 14 15 16 17 18 19 20 21 22 23 24 25 26 27 28 29 30 31 32 33 34 35 36 37 38 39 40 41 42 43 44 45 46 47 48 49 50

000
NZUS93 KARX 171310
HRRWXR

CURRENT HOURLY OBSERVATIONS ACROSS
MUCH OF THE UPPER MISSISSIPPI VALLEY
NATIONAL WEATHER SERVICE LA CROSSE WI
700 AM CST SUN DEC 17 2017


...SOUTHEAST MINNESOTA...


CITY           SKY/WX    TMP DP  RH WIND       PRES   REMARKS
ROCHESTER      FOG       25  24  96 NE6       30.06S VSB 1/2 WCI  18
ROCHESTER/MAYO CLOUDY    25  25 100 SE5       30.07F VSB 1   WCI  19
WINONA         CLOUDY    30  28  93 CALM      30.11S
AUSTIN         FOG       25  23  93 NE5       30.05F VSB 3/4 WCI  19
ALBERT LEA     FOG       21  21 100 E5        30.05F VSB 1/2 WCI  15
DODGE CENTER   FOG       25  23  93 E5        30.06S VSB 1/2 WCI  19
PRESTON        FOG       25  24  95 E3        30.05F VSB 1/4
OWATONNA       FOG       23  21  93 E5        30.07S VSB 1/2 WCI  17
FARIBAULT      CLOUDY    21  21 100 CALM      30.08S FOG
$$

...ELSEWHERE IN MINNESOTA...


CITY           SKY/WX    TMP DP  RH WIND       PRES   REMARKS
MINNEAPOLIS    CLOUDY    22  21  96 CALM      30.10S
INTNL FALLS    CLOUDY    22  20  92 SW12      29.99F FOG     WCI  10
DULUTH         CLOUDY    19  19 100 S7        30.06S FOG     WCI  10
RED WING       CLOUDY    25  21  86 E5        30.09F WCI  19
REDWOOD FALLS  CLOUDY    26  24  92 E6        30.09R FOG     WCI  19
MANKATO        CLOUDY    21  19  92 NE3       30.09R
WORTHINGTON    LGT SNOW  24  23  96 NE12      30.06F VSB 3/4 WCI  13
FAIRMONT       CLOUDY    25  23  93 N8        30.07S FOG     WCI  16
$$

...SOUTHWEST WISCONSIN...


CITY           SKY/WX    TMP DP  RH WIND       PRES   REMARKS
LA CROSSE      CLOUDY    30  26  85 E3        30.10R
PRAIRIE DU CHI CLOUDY    31  27  84 NE6       30.06F WCI  25
BOSCOBEL       CLOUDY    32  29  88 NE5       30.08F WCI  27
LONE ROCK      CLOUDY    31  30  96 E9        30.08F FOG     WCI  23
PLATTEVILLE    CLOUDY    32  32 100 NE8G16    30.05R WCI  25
FORT MC COY    CLOUDY    27  25  95 E6        30.11S WCI  20
CAMP DOUGLAS   CLOUDY   N/A N/A N/A E5        30.11S
MAUSTON-NEW LI CLOUDY    27  26  94 CALM      30.09S FOG
VIROQUA        CLOUDY    27  27 100 CALM      30.05S
WIS DELLS      CLOUDY    27  26  95 NE6       30.08F FOG     WCI  20
$$

...ELSEWHERE IN WISCONSIN...


CITY           SKY/WX    TMP DP  RH WIND       PRES   REMARKS
MILWAUKEE      CLOUDY    34  31  88 E10       30.09F WCI  26
MADISON        CLOUDY    31  29  92 E9        30.08F WCI  23
GREEN BAY      CLOUDY    29  24  82 NE7       30.16S WCI  22
EAU CLAIRE     CLOUDY    25  23  92 E5        30.11R FOG     WCI  19
BLACK RVR FLS  CLOUDY    27  23  86 E5        30.11S WCI  21
MEDFORD        CLOUDY    22  21  96 E5        30.08S WCI  16
WAUSAU         CLOUDY    23  21  92 E5        30.11R WCI  17
WIS RAPIDS     CLOUDY    25  21  85 E6        30.13R WCI  18
MARSHFIELD     CLOUDY    24  21  88 E9        30.09R WCI  14
RICE LAKE      CLOUDY    24  23  96 CALM      30.11S FOG
$$

...NORTHEAST IOWA...


CITY           SKY/WX    TMP DP  RH WIND       PRES   REMARKS
WATERLOO       CLOUDY    29  27  92 E7        30.02F FOG     WCI  22
DUBUQUE        CLOUDY    31  30  96 NE7       30.03R FOG     WCI  24
DECORAH        CLOUDY    28  28 100 E7        30.03F FOG     WCI  21
MASON CITY     FOG       26  25  96 NE8       30.03F VSB 1/2 WCI  18
CHARLES CITY   FOG       28  28 100 E8        30.02F VSB 3/4 WCI  20
OELWEIN        CLOUDY    30  30 100 E10G16    30.01F FOG     WCI  21
$$

...ELSEWHERE IN IOWA...


CITY           SKY/WX    TMP DP  RH WIND       PRES   REMARKS
DES MOINES     CLOUDY    32  24  72 NE5       29.99R WCI  27
IOWA CITY      CLOUDY    33  28  81 E5        30.03R WCI  29
FORT DODGE     CLOUDY    23  21  92 N10       30.01S FOG     WCI  12
MARSHALLTOWN   PTCLDY    27  26  96 NE7       30.00R FOG     WCI  19
CEDAR RAPIDS   CLOUDY    30  28  92 E10       29.99R FOG     WCI  21
$$

...NORTHERN ILLINOIS...


CITY           SKY/WX    TMP DP  RH WIND       PRES   REMARKS
CHICAGO-OHARE  CLOUDY    36  32  85 NE8       30.05S FOG     WCI  30
CHICAGO-MIDWAY CLOUDY    37  35  92 NE6       30.06S WCI  32
MOLINE         CLOUDY    31  28  89 E9        30.02R WCI  23
ROCKFORD       CLOUDY    33  30  88 E8        30.07S FOG     WCI  26
PEORIA         CLOUDY    38  30  73 S5        30.03F WCI  34
$$

NOTE: "FAIR" INDICATES FEW OR NO CLOUDS BELOW 12,000 FEET WITH NO
SIGNIFICANT WEATHER AND/OR OBSTRUCTIONS TO VISIBILITY. WIND
SPEEDS ARE IN MILES-PER-HOUR.




USA.gov is the U.S. government's official web portal to all federal, state and local government web resources and services.